Date String (YYYY-MM-DD hh:mm:ss) UTC,Instrument flags,Ambient pressure (hPa),Sample flow (lpm),Bypass flow (lpm),Sample temperature (°C),Ambient temperature (°C),ASC tube jacket temperature (°C),LED temperature (°C),Box temperature (°C),Sample RH (%),Span deviation,Mass concentration (μg/m³),Mass concentration (μg/m³),Mass concentration (μg/m³)
DateTimeUTC,F1_M11,P_M11,Q1_M11,Q2_M11,T1_M11,T2_M11,T3_M11,T4_M11,T5_M11,U1_M11,ZSPAN_M11,X0_M11,X2_M11,X1_M11
2022-04-29 00:00:00,,0815.9,4.99,0.00,29.4,28.2,00.0,38.2,31.3,09.3,0000.7,0027.56,0009.53,0005.81
2022-04-29 00:01:00,,0816.0,5.01,0.00,29.4,28.4,00.0,38.2,31.3,09.2,0004.2,0027.81,0009.60,0005.82
2022-04-29 00:02:00,,0815.9,4.99,0.00,29.5,28.5,00.0,38.2,31.4,09.2,0003.6,0028.15,0009.60,0005.82
2022-04-29 00:03:00,,0815.9,5.02,0.00,29.5,28.6,00.0,38.3,31.4,09.2,0002.3,0028.19,0009.63,0005.84
2022-04-29 00:04:00,,0816.0,4.99,0.00,29.6,28.6,00.0,38.3,31.4,09.2,0001.5,0026.84,0009.63,0005.86
2022-04-29 00:05:00,,0815.8,4.99,0.00,29.6,27.5,00.0,38.3,31.2,09.2,0002.1,0025.63,0009.63,0005.88
2022-04-29 00:06:00,,0815.6,5.01,0.00,29.4,25.3,00.0,38.3,30.7,09.2,0001.7,0025.91,0009.56,0005.86
2022-04-29 00:07:00,,0815.5,5.01,0.00,29.2,25.0,00.0,38.2,30.6,09.3,0001.5,0027.16,0009.59,0005.87
2022-04-29 00:08:00,,0815.4,4.99,0.00,29.2,25.5,00.0,38.2,30.7,09.3,0000.7,0027.09,0009.60,0005.87
2022-04-29 00:09:00,,0815.4,5.01,0.00,29.1,26.0,00.0,38.1,30.7,09.4,0000.2,0027.17,0009.64,0005.86
2022-04-29 00:10:00,,0815.4,5.01,0.00,29.1,26.5,00.0,38.1,30.8,09.4,0000.0,0027.10,0009.71,0005.88
2022-04-29 00:11:00,,0815.4,5.00,0.00,29.2,26.9,00.0,38.1,30.9,09.4,-000.3,0026.07,0009.85,0005.90
2022-04-29 00:12:00,,0815.4,4.99,0.00,29.2,27.2,00.0,38.1,31.0,09.5,-000.1,0026.18,0009.82,0005.91
2022-04-29 00:13:00,,0815.3,5.01,0.00,29.2,27.5,00.0,38.1,31.1,09.4,0000.0,0025.99,0009.83,0005.93
2022-04-29 00:14:00,,0815.4,4.98,0.00,29.3,27.7,00.0,38.1,31.1,09.3,0000.6,0026.12,0009.86,0005.93
2022-04-29 00:15:00,,0815.3,5.02,0.00,29.3,27.9,00.0,38.2,31.2,09.3,0000.9,0026.26,0009.83,0005.93
2022-04-29 00:16:00,,0815.4,4.99,0.00,29.3,28.0,00.0,38.2,31.3,09.3,0001.2,0026.96,0009.84,0005.91
2022-04-29 00:17:00,,0815.4,5.02,0.00,29.4,28.2,00.0,38.2,31.3,09.4,0001.7,0026.55,0009.81,0005.91
2022-04-29 00:18:00,,0815.4,4.98,0.00,29.4,28.3,00.0,38.2,31.3,09.4,0002.4,0025.89,0009.87,0005.92
2022-04-29 00:19:00,,0815.3,5.01,0.00,29.4,28.4,00.0,38.2,31.4,09.3,0003.2,0024.63,0009.86,0005.91
2022-04-29 00:20:00,,0815.3,5.00,0.00,29.5,28.5,00.0,38.3,31.4,09.4,0003.7,0024.84,0009.82,0005.89
2022-04-29 00:21:00,,0815.4,4.99,0.00,29.5,28.5,00.0,38.3,31.4,09.3,0004.1,0024.83,0009.67,0005.87
2022-04-29 00:22:00,,0815.3,5.02,0.00,29.5,28.6,00.0,38.3,31.5,09.3,0004.9,0025.55,0009.59,0005.87
2022-04-29 00:23:00,,0815.4,5.00,0.00,29.5,27.8,00.0,38.3,31.2,09.2,0004.6,0025.40,0009.57,0005.86
2022-04-29 00:24:00,,0815.4,4.99,0.00,29.4,25.5,00.0,38.3,30.7,09.3,0004.6,0025.76,0009.54,0005.85
2022-04-29 00:25:00,,0815.4,5.01,0.00,29.2,25.0,00.0,38.3,30.5,09.4,0004.5,0026.14,0009.52,0005.84
2022-04-29 00:26:00,,0815.3,5.00,0.00,29.2,25.4,00.0,38.2,30.6,09.6,0004.1,0026.39,0009.52,0005.84
2022-04-29 00:27:00,,0815.5,5.00,0.00,29.1,26.0,00.0,38.2,30.7,09.6,0003.7,0026.19,0009.43,0005.84
2022-04-29 00:28:00,,0815.5,5.01,0.00,29.1,26.4,00.0,38.1,30.8,09.8,0004.0,0026.70,0009.41,0005.84
2022-04-29 00:29:00,,0815.5,4.99,0.00,29.1,26.8,00.0,38.1,30.9,09.9,0004.2,0027.06,0009.36,0005.84
2022-04-29 00:30:00,,0815.7,4.99,0.00,29.2,27.1,00.0,38.1,31.0,09.8,0004.3,0028.10,0009.36,0005.85
2022-04-29 00:31:00,,0815.7,5.01,0.00,29.2,27.4,00.0,38.1,31.0,09.8,0004.0,0029.08,0009.40,0005.87
2022-04-29 00:32:00,,0816.0,4.98,0.00,29.2,27.6,00.0,38.1,31.0,10.1,0002.8,0029.97,0009.48,0005.87
2022-04-29 00:33:00,,0815.9,5.02,0.00,29.2,27.8,00.0,38.1,31.1,09.8,0002.3,0029.77,0009.52,0005.88
2022-04-29 00:34:00,,0816.0,4.98,0.00,29.3,28.0,00.0,38.1,31.1,09.9,0002.7,0030.13,0009.43,0005.87
2022-04-29 00:35:00,,0816.0,5.00,0.00,29.3,28.1,00.0,38.1,31.2,09.9,0002.8,0030.05,0009.45,0005.87
2022-04-29 00:36:00,,0816.0,5.01,0.00,29.3,28.2,00.0,38.2,31.2,09.8,0002.3,0030.97,0009.48,0005.87
2022-04-29 00:37:00,,0816.0,4.99,0.00,29.3,28.3,00.0,38.2,31.2,09.8,0002.8,0030.67,0009.48,0005.87
2022-04-29 00:38:00,,0815.8,5.01,0.00,29.4,28.4,00.0,38.2,31.3,09.7,0003.6,0030.25,0009.56,0005.87
2022-04-29 00:39:00,,0815.9,5.00,0.00,29.4,28.4,00.0,38.2,31.3,09.5,0002.8,0030.44,0009.60,0005.89
2022-04-29 00:40:00,,0815.6,4.99,0.00,29.4,28.5,00.0,38.2,31.3,09.8,0003.0,0030.25,0009.55,0005.87
2022-04-29 00:41:00,,0815.5,5.02,0.00,29.4,28.6,00.0,38.3,31.3,09.8,0002.4,0031.46,0009.54,0005.85
2022-04-29 00:42:00,,0815.4,4.98,0.00,29.5,28.0,00.0,38.3,31.2,09.9,0001.7,0031.44,0009.48,0005.84
2022-04-29 00:43:00,,0815.4,5.01,0.00,29.3,25.7,00.0,38.2,30.6,09.8,0002.4,0031.06,0009.45,0005.85
2022-04-29 00:44:00,,0815.4,4.99,0.00,29.2,24.7,00.0,38.2,30.5,09.9,0003.3,0032.33,0009.50,0005.84
2022-04-29 00:45:00,,0815.4,5.02,0.00,29.1,25.1,00.0,38.1,30.5,09.8,0002.8,0032.31,0009.60,0005.86
2022-04-29 00:46:00,,0815.5,4.99,0.00,29.0,25.7,00.0,38.1,30.6,09.7,0003.1,0031.91,0009.58,0005.87
2022-04-29 00:47:00,,0815.9,5.01,0.00,29.0,26.2,00.0,38.1,30.7,09.7,0003.4,0031.16,0009.49,0005.87
2022-04-29 00:48:00,,0815.9,4.99,0.00,29.0,26.6,00.0,38.0,30.8,09.7,0003.3,0031.10,0009.47,0005.88
2022-04-29 00:49:00,,0815.8,4.99,0.00,29.1,26.9,00.0,38.0,30.8,09.8,0002.5,0030.93,0009.46,0005.90
2022-04-29 00:50:00,,0816.0,5.01,0.00,29.1,27.2,00.0,38.0,30.9,09.7,0002.6,0030.92,0009.40,0005.90
2022-04-29 00:51:00,,0815.7,5.01,0.00,29.1,27.4,00.0,38.0,30.9,09.6,0001.9,0029.75,0009.35,0005.90
2022-04-29 00:52:00,,0815.5,5.00,0.00,29.1,27.6,00.0,38.0,30.9,09.5,0001.7,0028.03,0009.30,0005.89
2022-04-29 00:53:00,,0815.4,5.00,0.00,29.1,27.8,00.0,38.0,31.0,09.5,0001.9,0027.56,0009.30,0005.90
2022-04-29 00:54:00,,0815.4,5.00,0.00,29.1,27.9,00.0,38.1,31.0,09.4,0001.7,0027.76,0009.27,0005.90
2022-04-29 00:55:00,,0815.4,5.02,0.00,29.2,28.0,00.0,38.1,31.1,09.4,0001.6,0026.26,0009.19,0005.89
2022-04-29 00:56:00,,0815.3,4.98,0.00,29.2,28.2,00.0,38.1,31.1,09.4,0001.9,0025.82,0009.18,0005.88
2022-04-29 00:57:00,,0815.4,5.01,0.00,29.3,28.3,00.0,38.1,31.2,09.4,0001.9,0025.86,0009.17,0005.84
2022-04-29 00:58:00,,0815.3,4.99,0.00,29.3,28.4,00.0,38.1,31.2,09.4,0001.6,0025.54,0009.24,0005.82
2022-04-29 00:59:00,,0815.3,5.00,0.00,29.3,28.5,00.0,38.1,31.3,09.4,0001.9,0026.28,0009.23,0005.79
